Location: Newark
(40.9833°N, 0.0333°W)
Time: 01:19:29
(UTC+00:00)

deb Explorer IX - Pass Details

Date: 27 October 2020
Orbit: 537 x 1105 km, 38.8° (Epoch: 02 December)

Event Time Altitude Azimuth Distance (km) Brightness Sun altitude
Rises 09:06:02 0° 274° (W) 3,719 ? 24.8°
Reaches altitude 10° 09:08:38 10° 272° (W) 2,829 ? 25.2°
Maximum altitude 09:15:36 68° 191° (S) 1,164 ? 26.1°
Drops below altitude 10° 09:22:53 10° 110° (ESE) 2,954 ? 26.9°
Sets 09:25:39 0° 108° (ESE) 3,892 ? 27.3°
